Newton, KS

2:09 AM CST on December 08, 2019 (GMT -0600)
Newton City County

Weather History for KEWK - October, 2019

Change the Weather History Date:

Friday, October 25, 2019

  Actual Average Record
Temperature  
Mean Temperature 46 °F -  
Max Temperature 54 °F 61 °F 89 °F (2014)
Min Temperature 37 °F 42 °F 23 °F (2013)
Degree Days  
Heating Degree Days 20    
Moisture  
Dew Point 28 °F    
Average Humidity 55    
Maximum Humidity 76    
Minimum Humidity 33    
Precipitation  
Precipitation 0.05 in - - ()
Sea Level Pressure  
Sea Level Pressure 30.29 in    
Wind  
Wind Speed 10 mph (NNE)    
Max Wind Speed 14 mph    
Max Gust Speed 18 mph    
Visibility 10 miles    
Events      
Averages and records for this station are not official NWS values.
T = Trace of Precipitation, MM = Missing Value Source: NWS Daily Summary

Daily Weather History Graph

Daily Weather History Graph

Search for Another Location

Airport or City:

Astronomy

Oct. 25, 2019 Rise Set
Actual Time 7:47 AM CDT 6:38 PM CDT
Civil Twilight 7:20 AM CDT 7:05 PM CDT
Nautical Twilight 6:49 AM CDT 7:36 PM CDT
Astronomical Twilight 6:19 AM CDT 8:06 PM CDT
Moon 4:36 AM CDT (10/25) 5:37 PM CDT (10/25)
Length of Visible Light 11h 44m
Length of Day
10h 50m
Waning Crescent, 9% of the Moon is Illuminated
Oct 25
Waning Crescent
Oct 27
New
Nov 4
First Quarter
Nov 12
Full
Nov 19
Last Quarter

Hourly Weather History & Observations

Time (CDT) Temp. Windchill Dew Point Humidity Pressure Visibility Wind Dir Wind Speed Gust Speed Precip Events Conditions
12:56 AM 39.9 °F 32.9 °F 30.0 °F 68% 30.36 in 10.0 mi NNE 11.5 mph - N/A   Overcast
1:56 AM 39.9 °F 33.4 °F 30.0 °F 68% 30.38 in 10.0 mi North 10.4 mph - N/A   Overcast
2:56 AM 39.9 °F 32.9 °F 28.9 °F 65% 30.37 in 10.0 mi North 11.5 mph - N/A   Overcast
3:56 AM 39.0 °F 31.8 °F 30.0 °F 70% 30.36 in 10.0 mi North 11.5 mph - N/A   Mostly Cloudy
4:56 AM 39.0 °F 32.3 °F 28.9 °F 67% 30.36 in 10.0 mi NNE 10.4 mph - N/A   Overcast
5:56 AM 39.0 °F 32.8 °F 28.9 °F 67% 30.37 in 10.0 mi NNE 9.2 mph - N/A   Overcast
6:56 AM 37.9 °F 29.6 °F 30.0 °F 73% 30.36 in 10.0 mi North 13.8 mph - N/A   Overcast
7:56 AM 37.0 °F 31.6 °F 30.0 °F 76% 30.39 in 10.0 mi NNE 6.9 mph - N/A   Overcast
8:56 AM 37.9 °F 30.0 °F 30.0 °F 73% 30.40 in 10.0 mi North 12.7 mph - N/A   Overcast
9:56 AM 39.9 °F 32.9 °F 30.9 °F 70% 30.38 in 10.0 mi NNE 11.5 mph - N/A   Overcast
10:56 AM 43.0 °F 37.2 °F 32.0 °F 65% 30.38 in 10.0 mi NNE 10.4 mph - 0.05 in   Partly Cloudy
11:56 AM 48.0 °F - 28.9 °F 48% 30.35 in 10.0 mi NNE 12.7 mph 17.3 mph N/A   Clear
12:56 PM 50.0 °F - 28.0 °F 43% 30.32 in 10.0 mi NNE 12.7 mph 18.4 mph N/A   Clear
1:14 PM 51.8 °F - 28.4 °F 41% 30.30 in 10.0 mi NE 11.5 mph 18.4 mph N/A   Partly Cloudy
1:56 PM 52.0 °F - 27.0 °F 38% 30.28 in 10.0 mi NE 10.4 mph 17.3 mph N/A   Clear
2:56 PM 54.0 °F - 26.1 °F 34% 30.24 in 10.0 mi Variable 5.8 mph - N/A   Clear
3:56 PM 54.0 °F - 26.1 °F 34% 30.22 in 10.0 mi North 5.8 mph 17.3 mph N/A   Clear
4:56 PM 54.0 °F - 25.0 °F 33% 30.20 in 10.0 mi NE 8.1 mph - N/A   Clear
5:56 PM 52.0 °F - 25.0 °F 35% 30.19 in 10.0 mi NE 6.9 mph - N/A   Clear
6:56 PM 48.0 °F - 25.0 °F 41% 30.19 in 10.0 mi NNE 5.8 mph - N/A   Clear
7:56 PM 45.0 °F 41.2 °F 25.0 °F 46% 30.19 in 7.0 mi NNE 6.9 mph - N/A   Clear
8:56 PM 43.0 °F 41.3 °F 26.1 °F 51% 30.19 in 10.0 mi ENE 3.5 mph - N/A   Clear
9:56 PM 43.0 °F 41.3 °F 26.1 °F 51% 30.17 in 10.0 mi East 3.5 mph - N/A   Clear
10:56 PM 42.1 °F 38.4 °F 26.1 °F 53% 30.16 in 10.0 mi East 5.8 mph - N/A   Clear
11:56 PM 41.0 °F 38.0 °F 26.1 °F 55% 30.13 in 10.0 mi East 4.6 mph - N/A   Clear